Olive Branch, MS

1:42 AM CST on February 23, 2018 (GMT -0600)
Olive Branch

Weather History for KOLV - August, 2013

Change the Weather History Date:

Thursday, August 22, 2013

  Actual Average (KMEM) Record (KMEM)
Temperature  
Mean Temperature 79 °F -  
Max Temperature 89 °F 90 °F 100 °F (2000)
Min Temperature 69 °F 71 °F 56 °F (1956)
Cooling Degree Days 14    
Growing Degree Days 29 (Base 50)    
Moisture  
Dew Point 74 °F    
Average Humidity 94    
Maximum Humidity 100    
Minimum Humidity 62    
Precipitation  
Precipitation 0.00 in - - ()
Sea Level Pressure  
Sea Level Pressure 30.09 in    
Wind  
Wind Speed 1 mph (SSE)    
Max Wind Speed 6 mph    
Max Gust Speed -    
Visibility 9 miles    
Events      
Averages and records for this station are not official NWS values.
T = Trace of Precipitation, MM = Missing Value Source: NWS Daily Summary

Daily Weather History Graph

Daily Weather History Graph

Search for Another Location

Airport or City:

Trip Planner

Search our weather history database for the weather conditions in past years. The results will help you decide how hot, cold, wet, or windy it might be!

Date:

Astronomy

Aug. 22, 2013 Rise Set
Actual Time 6:24 AM CDT 7:38 PM CDT
Civil Twilight 5:58 AM CDT 8:04 PM CDT
Nautical Twilight 5:26 AM CDT 8:36 PM CDT
Astronomical Twilight 4:54 AM CDT 9:08 PM CDT
Moon 8:30 PM CDT (8/22) 8:06 AM CDT (8/22)
Length of Visible Light 14h 06m
Length of Day
13h 13m
Waning Gibbous, 96% of the Moon is Illuminated
Aug 22
Waning Gibbous
Aug 28
Last Quarter
Sep 5
New
Sep 12
First Quarter
Sep 19
Full

Hourly Weather History & Observations

Time (CDT) Temp. Heat Index Dew Point Humidity Pressure Visibility Wind Dir Wind Speed Gust Speed Precip Events Conditions
12:15 AM 75.2 °F - 75.2 °F 100% 30.12 in 10.0 mi Calm Calm - 0.00 in   Clear
12:35 AM 75.2 °F - 75.2 °F 100% 30.12 in 10.0 mi Calm Calm - 0.00 in   Clear
12:55 AM 73.4 °F - 73.4 °F 100% 30.12 in 10.0 mi Calm Calm - 0.00 in   Clear
1:15 AM 73.4 °F - 73.4 °F 100% 30.12 in 10.0 mi Calm Calm - 0.00 in   Clear
1:35 AM 73.4 °F - 73.4 °F 100% 30.11 in 10.0 mi Calm Calm - 0.00 in   Clear
1:55 AM 73.4 °F - 73.4 °F 100% 30.11 in 10.0 mi Calm Calm - 0.00 in   Clear
2:15 AM 73.4 °F - 73.4 °F 100% 30.10 in 10.0 mi Calm Calm - 0.00 in   Clear
2:35 AM 73.4 °F - 73.4 °F 100% 30.10 in 10.0 mi Calm Calm - 0.00 in   Clear
2:55 AM 71.6 °F - 71.6 °F 100% 30.10 in 10.0 mi Calm Calm - 0.00 in   Clear
3:15 AM 71.6 °F - 71.6 °F 100% 30.10 in 9.0 mi SSE 4.6 mph - 0.00 in   Clear
3:35 AM 71.6 °F - 71.6 °F 100% 30.10 in 9.0 mi SSE 4.6 mph - 0.00 in   Clear
3:55 AM 71.6 °F - 71.6 °F 100% 30.10 in 10.0 mi Calm Calm - 0.00 in   Clear
4:15 AM 71.6 °F - 71.6 °F 100% 30.11 in 10.0 mi South 3.5 mph - 0.00 in   Clear
4:35 AM 71.6 °F - 71.6 °F 100% 30.11 in 7.0 mi Calm Calm - 0.00 in   Clear
4:55 AM 69.8 °F - 69.8 °F 100% 30.11 in 7.0 mi Calm Calm - 0.00 in   Clear
5:15 AM 69.8 °F - - N/A% 30.12 in 7.0 mi Calm Calm - 0.00 in   Clear
5:35 AM 71.6 °F - - N/A% 30.13 in 10.0 mi Calm Calm - 0.00 in   Clear
5:55 AM 69.8 °F - - N/A% 30.13 in 7.0 mi Calm Calm - 0.00 in   Clear
6:15 AM 71.6 °F - - N/A% 30.13 in 9.0 mi Calm Calm - 0.00 in   Clear
6:35 AM 71.6 °F - - N/A% 30.14 in 8.0 mi Calm Calm - 0.00 in   Clear
7:50 AM 73.4 °F - 73.4 °F 100% 30.16 in 7.0 mi South 5.8 mph - N/A   Scattered Clouds
8:50 AM 78.8 °F - 77.0 °F 94% 30.15 in 10.0 mi Calm Calm - N/A   Partly Cloudy
9:50 AM 82.4 °F 92.4 °F 78.8 °F 89% 30.14 in 10.0 mi SSW 5.8 mph - N/A   Scattered Clouds
10:50 AM 84.2 °F 96.1 °F 78.8 °F 84% 30.14 in 10.0 mi South 5.8 mph - N/A   Scattered Clouds
11:50 AM 84.2 °F 92.3 °F 75.2 °F 74% 30.13 in 10.0 mi Calm Calm - N/A   Mostly Cloudy
2:50 PM 87.8 °F 97.6 °F 75.2 °F 66% 30.06 in 10.0 mi Calm Calm - N/A   Mostly Cloudy
3:50 PM 89.6 °F 99.8 °F 75.2 °F 62% 30.04 in 10.0 mi Calm Calm - N/A   Mostly Cloudy
4:50 PM 87.8 °F 97.6 °F 75.2 °F 66% 30.04 in 10.0 mi ENE 4.6 mph - N/A   Mostly Cloudy
5:50 PM 78.8 °F - 75.2 °F 89% 30.03 in 10.0 mi WSW 4.6 mph - N/A   Mostly Cloudy
6:50 PM 80.6 °F 87.1 °F 77.0 °F 89% 30.04 in 10.0 mi SSE 4.6 mph - N/A   Mostly Cloudy
7:50 PM 80.6 °F 87.1 °F 77.0 °F 89% 30.03 in 10.0 mi Calm Calm - N/A   Mostly Cloudy
8:55 PM 78.8 °F - 77.0 °F 94% 30.05 in 9.0 mi Calm Calm - 0.00 in   Clear
9:15 PM 75.2 °F - 75.2 °F 100% 30.05 in 9.0 mi Calm Calm - 0.00 in   Clear
9:35 PM 75.2 °F - 75.2 °F 100% 30.06 in 9.0 mi Calm Calm - 0.00 in   Clear
9:55 PM 77.0 °F - 75.2 °F 94% 30.07 in 9.0 mi Calm Calm - 0.00 in   Clear
10:15 PM 75.2 °F - 75.2 °F 100% 30.07 in 9.0 mi Calm Calm - 0.00 in   Clear
10:35 PM 75.2 °F - 75.2 °F 100% 30.07 in 9.0 mi Calm Calm - 0.00 in   Clear
10:55 PM 75.2 °F - 75.2 °F 100% 30.07 in 10.0 mi SE 5.8 mph - 0.00 in   Clear
11:15 PM 75.2 °F - 75.2 °F 100% 30.07 in 10.0 mi ESE 5.8 mph - 0.00 in   Clear
11:35 PM 75.2 °F - 75.2 °F 100% 30.06 in 10.0 mi SE 5.8 mph - 0.00 in   Clear
11:55 PM 73.4 °F - 73.4 °F 100% 30.06 in 10.0 mi Calm Calm - 0.00 in   Clear